Amoy Dream — VRHD5 — position and weather

sailwx.info

Track history (hours):
 
Tides and Currents Weather Stations Pressure Air Temp Water Temp Dewpoint Dewpoint Depression Visibility Wind Speed Wind Dir Waves Ship Positions

Amoy Dream

Last reported at 2015-Jan-29 18:30 UTC. Time now 2015-Jan-31 04:06 UTC.
Position N 38°44' E 025°08'.

Length 190 m; draft 11.2 m.

Type: Cargo ship. MMSI: 477826600.

Date/timePositionNaut miles runAvg speedWind from/ knotsBaromVisibWave heightAir tempDewpointWater temp
2015-Jan-29 18:30N 38°44' E 025°08'6713.1
2015-Jan-29 13:23N 39°45' E 025°45'1213.3
2015-Jan-29 12:27N 39°56' E 025°53'2711.9
2015-Jan-29 10:10N 40°09' E 026°23'2211.3
2015-Jan-29 08:14N 40°25' E 026°43'6 6.3
2015-Jan-29 07:20N 40°28' E 026°50'3 0.5
2015-Jan-29 01:09N 40°29' E 026°53'8412.7
2015-Jan-28 18:33N 40°53' E 028°39'1212.0
2015-Jan-28 17:32N 40°56' E 028°55'14 9.8
2015-Jan-28 16:04N 41°09' E 029°04'6 7.9
2015-Jan-28 15:17N 41°14' E 029°08'5 6.6
2015-Jan-28 14:33N 41°19' E 029°08'4 3.8
2015-Jan-28 13:33N 41°22' E 029°06'1 0.7
2015-Jan-28 12:33N 41°22' E 029°07'2 1.8
2015-Jan-28 11:32N 41°23' E 029°06'1 1.2
2015-Jan-28 10:33N 41°22' E 029°06'2 1.9
2015-Jan-28 09:33N 41°23' E 029°03'1 0.8
2015-Jan-28 08:33N 41°22' E 029°03'1 1.5
2015-Jan-28 07:33N 41°21' E 029°04'1 1.3
2015-Jan-28 06:33N 41°21' E 029°02'3 2.5
2015-Jan-28 05:26N 41°22' E 029°06'7 8.0
2015-Jan-28 04:33N 41°24' E 029°15'24712.9
2015-Jan-27 09:24N 43°15' E 034°13'1313.0
2015-Jan-27 08:24N 43°21' E 034°29'1313.0
2015-Jan-27 07:22N 43°27' E 034°45'1312.9
2015-Jan-27 06:23N 43°33' E 035°01'1212.8
2015-Jan-27 05:27N 43°38' E 035°16'1213.0
2015-Jan-27 04:33N 43°44' E 035°30'9113.0
2015-Jan-26 21:33N 44°24' E 037°24'1313.5
2015-Jan-26 20:33N 44°29' E 037°41'1110.9
2015-Jan-26 19:33N 44°34' E 037°55'1 0.7
2015-Jan-26 18:31N 44°35' E 037°54'0 0.0
2015-Jan-26 17:31N 44°35' E 037°54'0 0.0
2015-Jan-26 16:31N 44°35' E 037°54'0 0.0
2015-Jan-26 15:31N 44°35' E 037°54'0 0.0
2015-Jan-26 14:31N 44°35' E 037°54'0 0.0
2015-Jan-26 13:31N 44°35' E 037°54'0 0.0
2015-Jan-26 12:31N 44°35' E 037°54'0 0.0
2015-Jan-26 11:31N 44°35' E 037°54'0 0.0
2015-Jan-26 10:31N 44°35' E 037°54'0 0.0
2015-Jan-26 09:28N 44°35' E 037°54'0 0.0
2015-Jan-26 08:28N 44°35' E 037°54'0 0.0
2015-Jan-26 07:31N 44°35' E 037°54'0 0.0
2015-Jan-26 06:31N 44°35' E 037°54'0 0.0
2015-Jan-26 05:31N 44°35' E 037°54'0 0.0
2015-Jan-26 04:28N 44°35' E 037°54'0 0.0
2015-Jan-26 03:31N 44°35' E 037°54'0 0.0
2015-Jan-26 02:31N 44°35' E 037°54'0 0.0
2015-Jan-26 01:31N 44°35' E 037°54'0 0.0
2015-Jan-26 00:28N 44°35' E 037°54'0 0.0
2015-Jan-25 23:31N 44°35' E 037°54'0 0.0
2015-Jan-25 22:31N 44°35' E 037°54'0 0.0
2015-Jan-25 21:31N 44°35' E 037°54'0 0.0
2015-Jan-25 20:31N 44°35' E 037°54'0 0.0
2015-Jan-25 19:31N 44°35' E 037°54'0 0.0
2015-Jan-25 18:31N 44°35' E 037°54'0 0.0
2015-Jan-25 17:31N 44°35' E 037°54'0 0.0
2015-Jan-25 16:31N 44°35' E 037°54'0 0.0
2015-Jan-25 15:28N 44°35' E 037°54'0 0.0
2015-Jan-25 14:31N 44°35' E 037°54'0 0.0
2015-Jan-25 13:31N 44°35' E 037°54'0 0.0
2015-Jan-25 12:31N 44°35' E 037°54'0 0.0
2015-Jan-25 11:31N 44°35' E 037°54'0 0.0
2015-Jan-25 10:31N 44°35' E 037°54'0 0.0
2015-Jan-25 09:31N 44°35' E 037°54'0 0.0
2015-Jan-25 08:31N 44°35' E 037°54'0 0.0
2015-Jan-25 07:31N 44°35' E 037°54'0 0.0
2015-Jan-25 06:28N 44°35' E 037°54'0 0.0
2015-Jan-25 05:31N 44°35' E 037°54'1 0.7
2015-Jan-25 04:33N 44°34' E 037°54'5 4.7
2015-Jan-25 03:33N 44°39' E 037°51'6 5.5
2015-Jan-25 02:33N 44°44' E 037°48'0 0.0
2015-Jan-25 01:31N 44°44' E 037°48'0 0.0
2015-Jan-25 00:31N 44°44' E 037°48'0 0.0
2015-Jan-24 23:31N 44°44' E 037°48'0 0.0
2015-Jan-24 22:31N 44°44' E 037°48'0 0.0
2015-Jan-24 21:31N 44°44' E 037°48'0 0.0
2015-Jan-24 20:31N 44°44' E 037°48'0 0.0
2015-Jan-24 19:31N 44°44' E 037°48'0 0.0
2015-Jan-24 18:31N 44°44' E 037°48'0 0.0
2015-Jan-24 17:31N 44°44' E 037°48'0 0.0
2015-Jan-24 16:31N 44°44' E 037°48'0 0.0
2015-Jan-24 15:31N 44°44' E 037°48'0 0.0
2015-Jan-24 14:31N 44°44' E 037°48'0 0.0
2015-Jan-24 13:31N 44°44' E 037°48'0 0.0
2015-Jan-24 12:31N 44°44' E 037°48'0 0.0
2015-Jan-24 11:31N 44°44' E 037°48'0 0.0
2015-Jan-24 10:31N 44°44' E 037°48'0 0.0
2015-Jan-24 09:31N 44°44' E 037°48'0 0.0
2015-Jan-24 08:31N 44°44' E 037°48'0 0.0
2015-Jan-24 07:31N 44°44' E 037°48'0 0.0
2015-Jan-24 06:31N 44°44' E 037°48'0 0.0
2015-Jan-24 05:31N 44°44' E 037°48'0 0.0
2015-Jan-24 04:31N 44°44' E 037°48'0 0.0
2015-Jan-24 03:32N 44°44' E 037°48'0 0.0
2015-Jan-24 02:31N 44°44' E 037°48'0 0.0
2015-Jan-24 01:31N 44°44' E 037°48'0 0.0
2015-Jan-24 00:31N 44°44' E 037°48'0 0.0
2015-Jan-23 23:31N 44°44' E 037°48'0 0.0
2015-Jan-23 22:31N 44°44' E 037°48'0 0.0
2015-Jan-23 21:28N 44°44' E 037°48'0 0.0
2015-Jan-23 20:31N 44°44' E 037°48'0 0.0
2015-Jan-23 19:31N 44°44' E 037°48'0 0.0
2015-Jan-23 18:31N 44°44' E 037°48'0 0.0
2015-Jan-23 17:31N 44°44' E 037°48'0 0.0
2015-Jan-23 16:31N 44°44' E 037°48'0 0.0
2015-Jan-23 15:31N 44°44' E 037°48'0 0.0
2015-Jan-23 14:31N 44°44' E 037°48'0 0.0
2015-Jan-23 13:31N 44°44' E 037°48'0 0.0
2015-Jan-23 12:31N 44°44' E 037°48'0 0.0
2015-Jan-23 11:31N 44°44' E 037°48'0 0.0
2015-Jan-23 10:31N 44°44' E 037°48'0 0.0
2015-Jan-23 09:31N 44°44' E 037°48'0 0.0
2015-Jan-23 08:31N 44°44' E 037°48'0 0.0
2015-Jan-23 07:31N 44°44' E 037°48'0 0.0
2015-Jan-23 06:31N 44°44' E 037°48'0 0.0
2015-Jan-23 05:31N 44°44' E 037°48'0 0.0
2015-Jan-23 04:31N 44°44' E 037°48'0 0.0
2015-Jan-23 03:28N 44°44' E 037°48'0 0.0
2015-Jan-23 02:31N 44°44' E 037°48'0 0.0
2015-Jan-23 01:31N 44°44' E 037°48'0 0.0
2015-Jan-23 00:28N 44°44' E 037°48'0 0.0
2015-Jan-22 23:28N 44°44' E 037°48'0 0.0
2015-Jan-22 22:31N 44°44' E 037°48'0 0.0
2015-Jan-22 21:31N 44°44' E 037°48'0 0.0
2015-Jan-22 20:31N 44°44' E 037°48'0 0.0
2015-Jan-22 19:31N 44°44' E 037°48'0 0.0
2015-Jan-22 18:31N 44°44' E 037°48'0 0.0
2015-Jan-22 17:31N 44°44' E 037°48'0 0.0
2015-Jan-22 16:31N 44°44' E 037°48'0 0.0
2015-Jan-22 15:31N 44°44' E 037°48'0 0.0
2015-Jan-22 14:31N 44°44' E 037°48'0 0.0
2015-Jan-22 13:31N 44°44' E 037°48'0 0.0
2015-Jan-22 12:31N 44°44' E 037°48'0 0.0
2015-Jan-22 11:31N 44°44' E 037°48'0 0.0
2015-Jan-22 10:31N 44°44' E 037°48'0 0.0
2015-Jan-22 09:31N 44°44' E 037°48'0 0.0
2015-Jan-22 08:31N 44°44' E 037°48'0 0.0
2015-Jan-22 07:31N 44°44' E 037°48'0 0.0
2015-Jan-22 06:31N 44°44' E 037°48'0 0.0
2015-Jan-22 05:31N 44°44' E 037°48'0 0.0
2015-Jan-22 04:31N 44°44' E 037°48'0 0.0
2015-Jan-22 03:31N 44°44' E 037°48'0 0.0
2015-Jan-22 02:31N 44°44' E 037°48'0 0.0
2015-Jan-22 01:31N 44°44' E 037°48'0 0.0
2015-Jan-22 00:31N 44°44' E 037°48'0 0.0
2015-Jan-21 23:31N 44°44' E 037°48'0 0.0
2015-Jan-21 22:49N 44°44' E 037°48'0 0.0
2015-Jan-21 22:46N 44°44' E 037°48'0 0.0
2015-Jan-21 22:31N 44°44' E 037°48'0 0.0
2015-Jan-21 21:31N 44°44' E 037°48'0 0.0
2015-Jan-21 20:31N 44°44' E 037°48'0 0.0
2015-Jan-21 19:31N 44°44' E 037°48'0 0.0
2015-Jan-21 18:31N 44°44' E 037°48'0 0.0
2015-Jan-21 17:31N 44°44' E 037°48'0 0.0
2015-Jan-21 16:31N 44°44' E 037°48'0 0.0
2015-Jan-21 15:31N 44°44' E 037°48'0 0.0
2015-Jan-21 14:31N 44°44' E 037°48'0 0.0
2015-Jan-21 13:31N 44°44' E 037°48'0 0.0
2015-Jan-21 12:31N 44°44' E 037°48'0 0.0
2015-Jan-21 11:31N 44°44' E 037°48'0 0.0
2015-Jan-21 10:31N 44°44' E 037°48'3 3.4
2015-Jan-21 09:33N 44°41' E 037°50'5 4.8
2015-Jan-21 08:33N 44°36' E 037°52'5 4.6
2015-Jan-21 07:33N 44°32' E 037°52'3 3.3
2015-Jan-21 06:33N 44°29' E 037°55'1 1.2
2015-Jan-21 05:33N 44°30' E 037°54'6 6.5
2015-Jan-21 04:33N 44°32' E 037°45'1413.9
2015-Jan-21 03:33N 44°25' E 037°28'13014.0
2015-Jan-20 18:17N 43°29' E 034°45'  
Track history (hours):
 
Tides and Currents Weather Stations Pressure Air Temp Water Temp Dewpoint Dewpoint Depression Visibility Wind Speed Wind Dir Waves Ship Positions

Amoy Dream

Last reported at 2015-Jan-29 18:30 UTC. Time now 2015-Jan-31 04:06 UTC.
Position N 38°44' E 025°08'.

Length 190 m; draft 11.2 m.

Type: Cargo ship. MMSI: 477826600.

Date/timePositionNaut miles runAvg speedWind from/ knotsBaromVisibWave heightAir tempDewpointWater temp
2015-Jan-29 18:30N 38°44' E 025°08'6713.1
2015-Jan-29 13:23N 39°45' E 025°45'1213.3
2015-Jan-29 12:27N 39°56' E 025°53'2711.9
2015-Jan-29 10:10N 40°09' E 026°23'2211.3
2015-Jan-29 08:14N 40°25' E 026°43'6 6.3
2015-Jan-29 07:20N 40°28' E 026°50'3 0.5
2015-Jan-29 01:09N 40°29' E 026°53'8412.7
2015-Jan-28 18:33N 40°53' E 028°39'1212.0
2015-Jan-28 17:32N 40°56' E 028°55'14 9.8
2015-Jan-28 16:04N 41°09' E 029°04'6 7.9
2015-Jan-28 15:17N 41°14' E 029°08'5 6.6
2015-Jan-28 14:33N 41°19' E 029°08'4 3.8
2015-Jan-28 13:33N 41°22' E 029°06'1 0.7
2015-Jan-28 12:33N 41°22' E 029°07'2 1.8
2015-Jan-28 11:32N 41°23' E 029°06'1 1.2
2015-Jan-28 10:33N 41°22' E 029°06'2 1.9
2015-Jan-28 09:33N 41°23' E 029°03'1 0.8
2015-Jan-28 08:33N 41°22' E 029°03'1 1.5
2015-Jan-28 07:33N 41°21' E 029°04'1 1.3
2015-Jan-28 06:33N 41°21' E 029°02'3 2.5
2015-Jan-28 05:26N 41°22' E 029°06'7 8.0
2015-Jan-28 04:33N 41°24' E 029°15'24712.9
2015-Jan-27 09:24N 43°15' E 034°13'1313.0
2015-Jan-27 08:24N 43°21' E 034°29'1313.0
2015-Jan-27 07:22N 43°27' E 034°45'1312.9
2015-Jan-27 06:23N 43°33' E 035°01'1212.8
2015-Jan-27 05:27N 43°38' E 035°16'1213.0
2015-Jan-27 04:33N 43°44' E 035°30'9113.0
2015-Jan-26 21:33N 44°24' E 037°24'1313.5
2015-Jan-26 20:33N 44°29' E 037°41'1110.9
2015-Jan-26 19:33N 44°34' E 037°55'1 0.7
2015-Jan-26 18:31N 44°35' E 037°54'0 0.0
2015-Jan-26 17:31N 44°35' E 037°54'0 0.0
2015-Jan-26 16:31N 44°35' E 037°54'0 0.0
2015-Jan-26 15:31N 44°35' E 037°54'0 0.0
2015-Jan-26 14:31N 44°35' E 037°54'0 0.0
2015-Jan-26 13:31N 44°35' E 037°54'0 0.0
2015-Jan-26 12:31N 44°35' E 037°54'0 0.0
2015-Jan-26 11:31N 44°35' E 037°54'0 0.0
2015-Jan-26 10:31N 44°35' E 037°54'0 0.0
2015-Jan-26 09:28N 44°35' E 037°54'0 0.0
2015-Jan-26 08:28N 44°35' E 037°54'0 0.0
2015-Jan-26 07:31N 44°35' E 037°54'0 0.0
2015-Jan-26 06:31N 44°35' E 037°54'0 0.0
2015-Jan-26 05:31N 44°35' E 037°54'0 0.0
2015-Jan-26 04:28N 44°35' E 037°54'0 0.0
2015-Jan-26 03:31N 44°35' E 037°54'0 0.0
2015-Jan-26 02:31N 44°35' E 037°54'0 0.0
2015-Jan-26 01:31N 44°35' E 037°54'0 0.0
2015-Jan-26 00:28N 44°35' E 037°54'0 0.0
2015-Jan-25 23:31N 44°35' E 037°54'0 0.0
2015-Jan-25 22:31N 44°35' E 037°54'0 0.0
2015-Jan-25 21:31N 44°35' E 037°54'0 0.0
2015-Jan-25 20:31N 44°35' E 037°54'0 0.0
2015-Jan-25 19:31N 44°35' E 037°54'0 0.0
2015-Jan-25 18:31N 44°35' E 037°54'0 0.0
2015-Jan-25 17:31N 44°35' E 037°54'0 0.0
2015-Jan-25 16:31N 44°35' E 037°54'0 0.0
2015-Jan-25 15:28N 44°35' E 037°54'0 0.0
2015-Jan-25 14:31N 44°35' E 037°54'0 0.0
2015-Jan-25 13:31N 44°35' E 037°54'0 0.0
2015-Jan-25 12:31N 44°35' E 037°54'0 0.0
2015-Jan-25 11:31N 44°35' E 037°54'0 0.0
2015-Jan-25 10:31N 44°35' E 037°54'0 0.0
2015-Jan-25 09:31N 44°35' E 037°54'0 0.0
2015-Jan-25 08:31N 44°35' E 037°54'0 0.0
2015-Jan-25 07:31N 44°35' E 037°54'0 0.0
2015-Jan-25 06:28N 44°35' E 037°54'0 0.0
2015-Jan-25 05:31N 44°35' E 037°54'1 0.7
2015-Jan-25 04:33N 44°34' E 037°54'5 4.7
2015-Jan-25 03:33N 44°39' E 037°51'6 5.5
2015-Jan-25 02:33N 44°44' E 037°48'0 0.0
2015-Jan-25 01:31N 44°44' E 037°48'0 0.0
2015-Jan-25 00:31N 44°44' E 037°48'0 0.0
2015-Jan-24 23:31N 44°44' E 037°48'0 0.0
2015-Jan-24 22:31N 44°44' E 037°48'0 0.0
2015-Jan-24 21:31N 44°44' E 037°48'0 0.0
2015-Jan-24 20:31N 44°44' E 037°48'0 0.0
2015-Jan-24 19:31N 44°44' E 037°48'0 0.0
2015-Jan-24 18:31N 44°44' E 037°48'0 0.0
2015-Jan-24 17:31N 44°44' E 037°48'0 0.0
2015-Jan-24 16:31N 44°44' E 037°48'0 0.0
2015-Jan-24 15:31N 44°44' E 037°48'0 0.0
2015-Jan-24 14:31N 44°44' E 037°48'0 0.0
2015-Jan-24 13:31N 44°44' E 037°48'0 0.0
2015-Jan-24 12:31N 44°44' E 037°48'0 0.0
2015-Jan-24 11:31N 44°44' E 037°48'0 0.0
2015-Jan-24 10:31N 44°44' E 037°48'0 0.0
2015-Jan-24 09:31N 44°44' E 037°48'0 0.0
2015-Jan-24 08:31N 44°44' E 037°48'0 0.0
2015-Jan-24 07:31N 44°44' E 037°48'0 0.0
2015-Jan-24 06:31N 44°44' E 037°48'0 0.0
2015-Jan-24 05:31N 44°44' E 037°48'0 0.0
2015-Jan-24 04:31N 44°44' E 037°48'0 0.0
2015-Jan-24 03:32N 44°44' E 037°48'0 0.0
2015-Jan-24 02:31N 44°44' E 037°48'0 0.0
2015-Jan-24 01:31N 44°44' E 037°48'0 0.0
2015-Jan-24 00:31N 44°44' E 037°48'0 0.0
2015-Jan-23 23:31N 44°44' E 037°48'0 0.0
2015-Jan-23 22:31N 44°44' E 037°48'0 0.0
2015-Jan-23 21:28N 44°44' E 037°48'0 0.0
2015-Jan-23 20:31N 44°44' E 037°48'0 0.0
2015-Jan-23 19:31N 44°44' E 037°48'0 0.0
2015-Jan-23 18:31N 44°44' E 037°48'0 0.0
2015-Jan-23 17:31N 44°44' E 037°48'0 0.0
2015-Jan-23 16:31N 44°44' E 037°48'0 0.0
2015-Jan-23 15:31N 44°44' E 037°48'0 0.0
2015-Jan-23 14:31N 44°44' E 037°48'0 0.0
2015-Jan-23 13:31N 44°44' E 037°48'0 0.0
2015-Jan-23 12:31N 44°44' E 037°48'0 0.0
2015-Jan-23 11:31N 44°44' E 037°48'0 0.0
2015-Jan-23 10:31N 44°44' E 037°48'0 0.0
2015-Jan-23 09:31N 44°44' E 037°48'0 0.0
2015-Jan-23 08:31N 44°44' E 037°48'0 0.0
2015-Jan-23 07:31N 44°44' E 037°48'0 0.0
2015-Jan-23 06:31N 44°44' E 037°48'0 0.0
2015-Jan-23 05:31N 44°44' E 037°48'0 0.0
2015-Jan-23 04:31N 44°44' E 037°48'0 0.0
2015-Jan-23 03:28N 44°44' E 037°48'0 0.0
2015-Jan-23 02:31N 44°44' E 037°48'0 0.0
2015-Jan-23 01:31N 44°44' E 037°48'0 0.0
2015-Jan-23 00:28N 44°44' E 037°48'0 0.0
2015-Jan-22 23:28N 44°44' E 037°48'0 0.0
2015-Jan-22 22:31N 44°44' E 037°48'0 0.0
2015-Jan-22 21:31N 44°44' E 037°48'0 0.0
2015-Jan-22 20:31N 44°44' E 037°48'0 0.0
2015-Jan-22 19:31N 44°44' E 037°48'0 0.0
2015-Jan-22 18:31N 44°44' E 037°48'0 0.0
2015-Jan-22 17:31N 44°44' E 037°48'0 0.0
2015-Jan-22 16:31N 44°44' E 037°48'0 0.0
2015-Jan-22 15:31N 44°44' E 037°48'0 0.0
2015-Jan-22 14:31N 44°44' E 037°48'0 0.0
2015-Jan-22 13:31N 44°44' E 037°48'0 0.0
2015-Jan-22 12:31N 44°44' E 037°48'0 0.0
2015-Jan-22 11:31N 44°44' E 037°48'0 0.0
2015-Jan-22 10:31N 44°44' E 037°48'0 0.0
2015-Jan-22 09:31N 44°44' E 037°48'0 0.0
2015-Jan-22 08:31N 44°44' E 037°48'0 0.0
2015-Jan-22 07:31N 44°44' E 037°48'0 0.0
2015-Jan-22 06:31N 44°44' E 037°48'0 0.0
2015-Jan-22 05:31N 44°44' E 037°48'0 0.0
2015-Jan-22 04:31N 44°44' E 037°48'0 0.0
2015-Jan-22 03:31N 44°44' E 037°48'0 0.0
2015-Jan-22 02:31N 44°44' E 037°48'0 0.0
2015-Jan-22 01:31N 44°44' E 037°48'0 0.0
2015-Jan-22 00:31N 44°44' E 037°48'0 0.0
2015-Jan-21 23:31N 44°44' E 037°48'0 0.0
2015-Jan-21 22:49N 44°44' E 037°48'0 0.0
2015-Jan-21 22:46N 44°44' E 037°48'0 0.0
2015-Jan-21 22:31N 44°44' E 037°48'0 0.0
2015-Jan-21 21:31N 44°44' E 037°48'0 0.0
2015-Jan-21 20:31N 44°44' E 037°48'0 0.0
2015-Jan-21 19:31N 44°44' E 037°48'0 0.0
2015-Jan-21 18:31N 44°44' E 037°48'0 0.0
2015-Jan-21 17:31N 44°44' E 037°48'0 0.0
2015-Jan-21 16:31N 44°44' E 037°48'0 0.0
2015-Jan-21 15:31N 44°44' E 037°48'0 0.0
2015-Jan-21 14:31N 44°44' E 037°48'0 0.0
2015-Jan-21 13:31N 44°44' E 037°48'0 0.0
2015-Jan-21 12:31N 44°44' E 037°48'0 0.0
2015-Jan-21 11:31N 44°44' E 037°48'0 0.0
2015-Jan-21 10:31N 44°44' E 037°48'3 3.4
2015-Jan-21 09:33N 44°41' E 037°50'5 4.8
2015-Jan-21 08:33N 44°36' E 037°52'5 4.6
2015-Jan-21 07:33N 44°32' E 037°52'3 3.3
2015-Jan-21 06:33N 44°29' E 037°55'1 1.2
2015-Jan-21 05:33N 44°30' E 037°54'6 6.5
2015-Jan-21 04:33N 44°32' E 037°45'1413.9
2015-Jan-21 03:33N 44°25' E 037°28'13014.0
2015-Jan-20 18:17N 43°29' E 034°45'  

Dump ship's entire track history